Regional Weather Roundup
Issued by NWS

Home | Current Version | Previous Version | Graphics & Text | Print | Product List | Glossary On
Versions: 1 2 3 4 5 6 7 8 9 10 11 12 13 14 15 16 17 18 19 20 21 22 23 24 25 26 27 28 29 30 31 32 33 34 35 36 37 38 39 40 41 42 43 44 45 46 47 48 49 50
545
ASUS45 KCYS 030510
RWRWY

WYOMING REGIONAL WEATHER ROUNDUP
NATIONAL WEATHER SERVICE CHEYENNE WY
1100 PM MDT MON MAY 02 2016

NOTE:  "FAIR" INDICATES FEW OR NO CLOUDS BELOW 12,000 FEET
WITH NO SIGNIFICANT WEATHER AND/OR OBSTRUCTIONS TO VISIBILITY.

WYZ001-030600-
YELLOWSTONE NATIONAL PARK

CITY           SKY/WX    TMP DP  RH WIND       PRES   REMARKS
LK YELLOWSTONE   N/A     34  24  67 CALM      30.31R
W YELLOWSTONE  NOT AVBL

$$
WYZ002>013-054>058-071-098>099-030600-
NORTHERN WYOMING

CITY           SKY/WX    TMP DP  RH WIND       PRES   REMARKS
JACKSON        FAIR      37  27  65 N3        30.24R
CODY           FAIR      50  32  50 CALM      30.19S
GREYBULL       FAIR      59  29  31 N6        30.12R
WORLAND        FAIR      47  36  65 S10       30.13R
SHERIDAN       FAIR      48  34  58 CALM      30.16R
BUFFALO          N/A    N/A N/A N/A MISG      30.18S
GILLETTE       FAIR      45  35  68 W12       30.12S
HULETT         MOCLDY    52  36  54 CALM      30.12R
NEWCASTLE      FAIR      50  32  50 NW8       30.10S

$$
WYZ014>020-022>026-101>103-030600-
CENTRAL WYOMING

CITY           SKY/WX    TMP DP  RH WIND       PRES   REMARKS
BIG PINEY      FAIR      40  18  41 NW3       30.24R
PINEDALE       FAIR      37  21  52 E6        30.26R WCI  33
DUBOIS         FAIR      41  23  48 W5        30.26R
LANDER         FAIR      46  25  43 SE3       30.20R
RIVERTON       FAIR      49  33  54 W8        30.20S
CASPER         FAIR      37  33  85 NW8       30.19R WCI  31
DOUGLAS        FAIR      40  33  76 NW7       30.17R

$$
WYZ021-027>030-104>119-030600-
SOUTHERN WYOMING

CITY           SKY/WX    TMP DP  RH WIND       PRES   REMARKS
EVANSTON       FAIR      45  24  43 CALM      30.26R
KEMMERER         N/A     43  18  36 NW6       30.26S
FORT BRIDGER   CLEAR     43  23  45 W9        30.28S
ROCK SPRINGS   FAIR      44  19  36 E3        30.24R
DIXON          FAIR      37  24  61 NE3       30.25R
RAWLINS        FAIR      35  24  64 CALM      30.23R
SARATOGA       FAIR      34  19  55 CALM      30.24R
LARAMIE        FAIR      30  23  75 NW9       30.21R WCI  22
CHEYENNE       FAIR      46  25  43 NW14G23   30.15S
TORRINGTON     CLOUDY    49  34  56 NW9       30.08S
PINE BLUFFS    FAIR      41  32  70 W6        30.12S

$$




USA.gov is the U.S. government's official web portal to all federal, state and local government web resources and services.